Simultaneous Nadir Overpasses (SNOs) Predictions

Prediction of SNOs between GOES-16 and AQUA Satellite Orbit:

Table of predicted SNOs for the next 14.0 days since TLE Epoch: 9/4/2020
Index Date Time (GOES-16) GOES-16 Lat,Lon AQUA Lat,Lon Distance(km) Time Diff (sec)
1 09/06/2020 18:29:24 0.05, -75.17 0.46, -73.15 228.50 80
2 09/07/2020 06:50:38 -0.05, -75.16 0.64, -78.31 358.77 80
3 09/09/2020 06:38:27 -0.06, -75.15 -0.03, -75.36 24.03 80
4 09/11/2020 06:23:35 -0.06, -75.14 -0.63, -72.40 311.00 80
5 09/11/2020 18:45:00 0.06, -75.14 -0.45, -77.60 279.28 80
6 09/13/2020 18:35:28 0.07, -75.13 0.17, -74.64 56.07 80
7 09/15/2020 18:23:16 0.07, -75.13 0.78, -71.68 391.96 80
8 09/16/2020 06:44:32 -0.08, -75.12 0.26, -76.84 194.76 80
9 09/18/2020 06:29:40 -0.08, -75.13 -0.36, -73.88 142.00 80
10 09/18/2020 18:51:04 0.08, -75.13 -0.77, -79.07 447.92 80
